Weather History for KMMU - February, 2014

Change the Weather History Date:

Thursday, February 20, 2014

  Actual Average Record
Temperature  
Mean Temperature 34 °F -  
Max Temperature 48 °F 44 °F 69 °F (1939)
Min Temperature 21 °F 23 °F -17 °F (1936)
Degree Days  
Heating Degree Days 30    
Moisture  
Dew Point 27 °F    
Average Humidity 70    
Maximum Humidity 93    
Minimum Humidity 37    
Precipitation  
Precipitation 0.00 in - - ()
Sea Level Pressure  
Sea Level Pressure 30.15 in    
Wind  
Wind Speed 3 mph (WSW)    
Max Wind Speed 10 mph    
Max Gust Speed 9 mph    
Visibility 8 miles    
Events      
Averages and records for this station are not official NWS values.
T = Trace of Precipitation, MM = Missing Value Source: NWS Daily Summary

Daily Weather History Graph

Daily Weather History Graph

Search for Another Location

Airport or City:

Trip Planner

Search our weather history database for the weather conditions in past years. The results will help you decide how hot, cold, wet, or windy it might be!

Date:

Astronomy

Feb. 20, 2014 Rise Set
Actual Time 6:44 AM EST 5:38 PM EST
Civil Twilight 6:17 AM EST 6:06 PM EST
Nautical Twilight 5:45 AM EST 6:38 PM EST
Astronomical Twilight 5:13 AM EST 7:09 PM EST
Moon 11:32 PM EST (2/20) 9:23 AM EST (2/20)
Length of Visible Light 11h 49m
Length of Day
10h 53m
Waning Gibbous, 71% of the Moon is Illuminated
Feb 20
Waning Gibbous
Feb 22
Last Quarter
Mar 1
New
Mar 8
First Quarter
Mar 16
Full

Hourly Weather History & Observations

Time (EST) Temp. Windchill Dew Point Humidity Pressure Visibility Wind Dir Wind Speed Gust Speed Precip Events Conditions
12:15 AM 42.8 °F 40.1 °F 28.4 °F 57% 30.03 in 10.0 mi WNW 4.6 mph 9.2 mph N/A   Clear
12:35 AM 42.8 °F 40.1 °F 26.6 °F 53% 30.05 in 10.0 mi WSW 4.6 mph - N/A   Clear
12:55 AM 41.0 °F 37.1 °F 28.4 °F 61% 30.06 in 10.0 mi WNW 5.8 mph - N/A   Clear
1:15 AM 41.0 °F 36.4 °F 26.6 °F 57% 30.08 in 10.0 mi WNW 6.9 mph - N/A   Clear
1:35 AM 41.0 °F - 26.6 °F 57% 30.10 in 10.0 mi Calm Calm - N/A   Clear
1:55 AM 39.2 °F 37.0 °F 26.6 °F 61% 30.11 in 10.0 mi West 3.5 mph - N/A   Clear
2:15 AM 35.6 °F 31.7 °F 26.6 °F 70% 30.11 in 10.0 mi WNW 4.6 mph - N/A   Clear
2:35 AM 37.4 °F - 26.6 °F 65% 30.12 in 10.0 mi Calm Calm - N/A   Clear
2:55 AM 32.0 °F 26.4 °F 24.8 °F 75% 30.13 in 10.0 mi West 5.8 mph - N/A   Clear
3:15 AM 32.0 °F - 26.6 °F 80% 30.14 in 10.0 mi Calm Calm - N/A   Clear
3:35 AM 32.0 °F - 26.6 °F 80% 30.16 in 10.0 mi Calm Calm - N/A   Clear
3:55 AM 32.0 °F 28.7 °F 26.6 °F 80% 30.15 in 10.0 mi WNW 3.5 mph - N/A   Clear
4:15 AM 30.2 °F - 26.6 °F 86% 30.16 in 10.0 mi Calm Calm - N/A   Clear
4:35 AM 26.6 °F - 23.0 °F 86% 30.16 in 10.0 mi Calm Calm - N/A   Clear
4:55 AM 26.6 °F - 23.0 °F 86% 30.16 in 10.0 mi Calm Calm - N/A   Clear
5:15 AM 24.8 °F - 23.0 °F 93% 30.17 in 10.0 mi Calm Calm - N/A   Clear
5:35 AM 26.6 °F - 23.0 °F 86% 30.18 in 10.0 mi Calm Calm - N/A   Clear
6:47 AM 21.2 °F - 19.4 °F 93% 30.02 in 10.0 mi Calm Calm - N/A   Clear
7:45 AM 24.8 °F - 23.0 °F 93% 30.21 in 10.0 mi Calm Calm - N/A   Scattered Clouds
8:45 AM 37.4 °F 34.9 °F 26.6 °F 65% 30.25 in 10.0 mi WSW 3.5 mph - N/A   Scattered Clouds
9:45 AM 42.8 °F 39.3 °F 24.8 °F 49% 30.26 in 15.0 mi West 5.8 mph - N/A   Partly Cloudy
10:45 AM 44.6 °F - 24.8 °F 46% 30.25 in 10.0 mi Calm Calm - N/A   Partly Cloudy
11:45 AM 44.6 °F 41.4 °F 24.8 °F 46% 30.24 in 10.0 mi SSW 5.8 mph - N/A   Scattered Clouds
12:45 PM 46.4 °F 44.3 °F 23.0 °F 40% 30.20 in 10.0 mi SW 4.6 mph - N/A   Mostly Cloudy
1:45 PM 48.2 °F - 23.0 °F 37% 30.18 in 10.0 mi SW 5.8 mph - N/A   Mostly Cloudy
2:45 PM 48.2 °F - 23.0 °F 37% 30.16 in 10.0 mi South 6.9 mph - N/A   Mostly Cloudy
3:45 PM 48.2 °F - 23.0 °F 37% 30.17 in 10.0 mi SSE 5.8 mph - N/A   Mostly Cloudy
4:45 PM 44.6 °F 39.2 °F 26.6 °F 49% 31.04 in 10.0 mi SSE 10.4 mph - N/A   Mostly Cloudy
5:45 PM 41.0 °F 36.4 °F 26.6 °F 57% 30.14 in 10.0 mi SE 6.9 mph - N/A   Overcast
6:45 PM 41.0 °F 38.0 °F 26.6 °F 57% 30.12 in 10.0 mi SSE 4.6 mph - N/A   Overcast
7:45 PM 39.2 °F 35.0 °F 26.6 °F 61% 30.11 in 10.0 mi SSE 5.8 mph - N/A   Overcast
8:45 PM 39.2 °F - 28.4 °F 65% 30.12 in 10.0 mi Calm Calm - N/A   Overcast
9:45 PM 35.6 °F 32.8 °F 33.8 °F 93% 30.10 in 2.0 mi North 3.5 mph - N/A   Overcast
9:55 PM 37.4 °F - 35.6 °F 93% 30.09 in 2.5 mi Calm Calm - N/A   Overcast
10:15 PM 37.4 °F - 33.8 °F 87% 30.07 in 2.0 mi Calm Calm - N/A   Overcast
10:35 PM 37.4 °F 34.9 °F 35.6 °F 93% 30.06 in 2.0 mi NNE 3.5 mph - N/A   Overcast
10:55 PM 37.4 °F - 35.6 °F 93% 30.05 in 2.0 mi Calm Calm - N/A   Overcast
11:15 PM 37.4 °F - 35.6 °F 93% 30.05 in 1.2 mi Calm Calm - N/A   Overcast
11:35 PM 37.4 °F - 35.6 °F 93% 30.04 in 0.8 mi Calm Calm - N/A   Overcast
11:55 PM 37.4 °F - 35.6 °F 93% 30.03 in 0.8 mi Calm Calm - N/A   Overcast